This is the latest recevied weather packets stored in our database for station/object N7CEE-2. If no packets are shown the sender has not sent any weather packets the latest 10 day(s).
| Time | Temp. | Humidity | Pressure | Rain* | Wind** | Luminosity | Snow |
|---|---|---|---|---|---|---|---|
| 1777388057 | 18.33° C | 34% | 1019 hPa | 0 mm | - | 292 W/m² | - |
| 1777387754 | 18.33° C | 35% | 1018.9 hPa | 0 mm | - | 274 W/m² | - |
| 1777387450 | 18.33° C | 34% | 1018.8 hPa | 0 mm | - | 252 W/m² | - |
| 1777387145 | 17.78° C | 34% | 1019 hPa | 0 mm | - | 231 W/m² | - |
| 1777386840 | 17.78° C | 34% | 1018.9 hPa | 0 mm | - | 208 W/m² | - |
| 1777386537 | 18.33° C | 34% | 1018.8 hPa | 0 mm | - | 191 W/m² | - |
| 1777386235 | 18.33° C | 34% | 1018.6 hPa | 0 mm | - | 172 W/m² | - |
| 1777385932 | 18.33° C | 34% | 1018.6 hPa | 0 mm | - | 155 W/m² | - |
| 1777385628 | 16.67° C | 36% | 1018.9 hPa | 0 mm | - | 138 W/m² | - |
| 1777385326 | 16.67° C | 37% | 1018.6 hPa | 0 mm | - | 125 W/m² | - |
| 1777385022 | 15.56° C | 39% | 1018.6 hPa | 0 mm | - | 111 W/m² | - |
| 1777384719 | 15° C | 39% | 1018.4 hPa | 0 mm | - | 98 W/m² | - |
| 1777384418 | 15° C | 39% | 1018.3 hPa | 0 mm | - | 87 W/m² | - |
| 1777384115 | 14.44° C | 40% | 1018.4 hPa | 0 mm | - | 74 W/m² | - |
| 1777383811 | 13.89° C | 41% | 1018.2 hPa | 0 mm | - | 62 W/m² | - |
| 1777383507 | 13.89° C | 41% | 1018.3 hPa | 0 mm | - | 49 W/m² | - |
| 1777383204 | 13.33° C | 42% | 1018.1 hPa | 0 mm | - | 44 W/m² | - |
| 1777382901 | 13.33° C | 42% | 1018 hPa | 0 mm | - | 38 W/m² | - |
| 1777382596 | 13.33° C | 42% | 1018 hPa | 0 mm | - | 34 W/m² | - |
| 1777382292 | 12.78° C | 44% | 1017.8 hPa | 0 mm | - | 30 W/m² | - |
| 1777381988 | 12.78° C | 45% | 1017.8 hPa | 0 mm | - | 26 W/m² | - |
| 1777381683 | 12.22° C | 46% | 1017.8 hPa | 0 mm | - | 22 W/m² | - |
| 1777381379 | 12.22° C | 48% | 1017.6 hPa | 0 mm | - | 18 W/m² | - |
| 1777381076 | 11.67° C | 47% | 1017.6 hPa | 0 mm | - | 14 W/m² | - |
| 1777380772 | 12.22° C | 49% | 1017.6 hPa | 0 mm | - | 10 W/m² | - |
* Rain latest hour (hover to see other rain measurements)
** Current wind speed in m/s (hover to see current wind gust speed)